Regional Weather Roundup
Issued by NWS

Home | Current Version | Previous Version | Graphics & Text | Print | Product List | Glossary On
Versions: 1 2 3 4 5 6 7 8 9 10 11 12 13 14 15 16 17 18 19 20 21 22 23 24 25 26 27 28 29 30 31 32 33 34 35 36 37 38 39 40 41 42 43 44 45 46 47 48 49 50
000
ASUS43 KFSD 210002
RWRSD

WEATHER ROUNDUP FOR SOUTH DAKOTA
NATIONAL WEATHER SERVICE SIOUX FALLS SD
600 PM CST THU NOV 20 2014

NOTE: "FAIR" INDICATES FEW OR NO CLOUDS BELOW 12,000 FEET WITH NO
SIGNIFICANT WEATHER AND/OR OBSTRUCTIONS TO VISIBILITY.


SDZ001>005-009-010-012>017-210100-
NORTHWEST AND NORTH CENTRAL SOUTH DAKOTA

CITY           SKY/WX    TMP DP  RH WIND       PRES   REMARKS
BUFFALO          N/A     27  20  75 S13       29.81F WCI  16
FAITH            N/A     19  14  81 S18       29.94F WCI   4
MOBRIDGE       MOCLDY    22  17  81 S9        30.01S WCI  12
$$

SDZ012>016-024>037-041>051-057-063-072>074-210100-
SOUTHWEST AND SOUTH CENTRAL SOUTH DAKOTA

CITY           SKY/WX    TMP DP  RH WIND       PRES   REMARKS
RAPID CTY ARPT CLEAR     22  18  85 SE5       29.92S WCI  16
PIERRE         PTCLDY    20  16  84 SE9       30.06R WCI   9
CUSTER         CLEAR     36  17  46 SW3       29.89S
ELLSWORTH AFB  CLEAR     24  19  83 S6        29.91S WCI  16
PHILIP         CLEAR     20  16  84 E8        30.00S WCI  10
PINE RIDGE     CLEAR     31  22  69 NE5       29.92S WCI  26
WINNER         FAIR      21  15  78 SE10      30.06S WCI  10
$$

SDZ004>011-016>023-039-040-210100-
NORTHEAST SOUTH DAKOTA

CITY           SKY/WX    TMP DP  RH WIND       PRES   REMARKS
ABERDEEN       MOCLDY     8   2  76 SE9       30.13F WCI  -5
WATERTOWN      PTCLDY     8   3  80 S3        30.12S
SISSETON         N/A      8   3  80 CALM      30.15S
$$

SDZ017-020-022-023-036>040-048>070-210100-
SOUTHEAST SOUTH DAKOTA

CITY           SKY/WX    TMP DP  RH WIND       PRES   REMARKS
SIOUX FALLS    PTCLDY    13   7  77 CALM      30.17S
HURON          PTCLDY    12   6  77 SE8       30.15S WCI   0
CHAMBERLAIN    PTCLDY    19  15  84 SE8       30.10R WCI   9
MITCHELL       PTCLDY    15   9  76 SE5       30.17S WCI   8
YANKTON        CLOUDY    19  12  73 N5        30.19S WCI  13
$$

ABBREVIATIONS USED IN REMARKS
   TC - TEMPERATURE IN CELSIUS
  WCI - WIND CHILL INDEX
   HX - HEAT INDEX
  VSB - VISIBILITY




USA.gov is the U.S. government's official web portal to all federal, state and local government web resources and services.